Location: Hopkins Observatory
(42.6965°N, 73.1843°W)
Time: 16:29:30
(UTC-04:00)

Amateur Radio Satellites - All Passes

Search period start: 28 July 2014 15:59
Search period end: 29 July 2014 15:59
Location: Hopkins Observatory, 42.6965°N, 73.1843°W

Satellite Date Start Highest point End Downlink Frequencies (MHz)
Time Altitude Azimuth
Gurwin Techsat 1B 28 Jul 16:06:06 16:10:10 22° 267° (W) 16:14:16 435.225 FM
OPAL 28 Jul 16:07:28 16:11:21 22° 96° (E) 16:15:15 ?
UOSAT-12 28 Jul 16:12:11 16:16:04 26° 317° (NW) 16:20:01 437.025 FM, 437.400 FM
Saudisat 1A 28 Jul 16:20:43 16:25:05 55° 52° (NE) 16:29:23 436.775 MHz
JAS-2 28 Jul 16:25:02 16:29:31 17° 56° (NE) 16:33:49 435.800 - 435.900 CW/SSB, 435.910 FM
AO-7 28 Jul 16:42:59 16:51:16 66° 255° (WSW) 16:59:37 29.400 - 29.500 MHz
KITSAT 1 28 Jul 16:54:08 17:01:20 37° 251° (WSW) 17:08:30 435.175 FM
Uosat F 28 Jul 16:57:03 17:01:44 38° 262° (W) 17:06:27 435.120 FM
OPAL 28 Jul 17:45:35 17:50:27 48° 292° (WNW) 17:55:20 ?
Saudisat 1A 28 Jul 18:01:26 18:04:14 17° 250° (WSW) 18:07:01 436.775 MHz
Hamsat 28 Jul 18:04:35 18:08:46 87° 78° (ENE) 18:12:59 145.90 MHz
JAS-2 28 Jul 18:05:43 18:13:31 75° 73° (ENE) 18:20:49 435.800 - 435.900 CW/SSB, 435.910 FM
RS-15 28 Jul 18:07:49 18:16:00 23° 353° (N) 18:24:15 29.354 - 29.394 USB, Beacon 29.352 USB
STRAND 1 28 Jul 18:30:25 18:33:22 15° 90° (E) 18:36:19 ?
AO-7 28 Jul 18:43:00 18:45:35 12° 275° (W) 18:48:10 29.400 - 29.500 MHz
SO-67 28 Jul 18:51:45 18:55:01 40° 73° (ENE) 18:58:19 435.3500 MHz FM
JAS-2 28 Jul 19:53:06 19:59:00 23° 269° (W) 20:04:42 435.800 - 435.900 CW/SSB, 435.910 FM
HO-68 28 Jul 19:53:35 19:59:46 33° 61° (ENE) 20:05:57 435.675 MHz FM
STRAND 1 28 Jul 20:07:57 20:13:02 65° 287° (WNW) 20:18:03 ?
UKube-1 28 Jul 20:18:38 20:21:50 20° 65° (ENE) 20:25:03 145.840 MHz, 145.915 MHz
RS-15 28 Jul 20:23:39 20:33:08 32° 28° (NNE) 20:42:46 29.354 - 29.394 USB, Beacon 29.352 USB
SO-67 28 Jul 20:27:03 20:28:19 12° 269° (W) 20:29:35 435.3500 MHz FM
SO-50 28 Jul 20:57:26 21:01:58 43° 50° (NE) 21:06:33 436.795 FM
Oscar 11 28 Jul 21:03:38 21:07:19 28° 68° (ENE) 21:11:00 145.825 FM, Beacon 2401.500 USB
MaSat-1 28 Jul 21:05:44 21:09:27 37° 107° (ESE) 21:13:44 437.345 MHz
UOSAT-12 28 Jul 21:22:03 21:23:28 11° 30° (NNE) 21:24:52 437.025 FM, 437.400 FM
FUNcube-1 28 Jul 21:24:58 21:27:55 18° 65° (ENE) 21:30:50 145.950 - 145.970 MHz USB
HO-68 28 Jul 21:40:12 21:47:10 53° 259° (W) 21:54:09 435.675 MHz FM
UKube-1 28 Jul 21:53:40 21:57:46 40° 261° (W) 22:01:55 145.840 MHz, 145.915 MHz
RS-15 28 Jul 22:36:16 22:47:21 82° 56° (NE) 22:58:51 29.354 - 29.394 USB, Beacon 29.352 USB
SO-50 28 Jul 22:38:25 22:42:21 26° 247° (WSW) 22:46:18 436.795 FM
Oscar 11 28 Jul 22:39:49 22:43:27 26° 265° (W) 22:47:07 145.825 FM, Beacon 2401.500 USB
MaSat-1 28 Jul 22:43:20 22:46:55 25° 310° (NW) 22:50:56 437.345 MHz
ISS 28 Jul 22:55:53 22:58:04 16° 132° (SE) 23:00:16 145.800 FM
FUNcube-1 28 Jul 22:59:55 23:04:02 42° 261° (W) 23:08:05 145.950 - 145.970 MHz USB
UOSAT-12 28 Jul 23:00:07 23:04:45 50° 51° (NE) 23:09:18 437.025 FM, 437.400 FM
PCSat 28 Jul 23:38:27 23:41:12 14° 103° (ESE) 23:43:57 145.825 MHz
ISS 29 Jul 00:31:08 00:34:27 65° 329° (NNW) 00:37:48 145.800 FM
UOSAT-12 29 Jul 00:41:03 00:44:33 21° 249° (WSW) 00:48:01 437.025 FM, 437.400 FM
Sapphire 29 Jul 00:45:16 00:50:28 51° 114° (ESE) 00:55:43 437.095 MHz 1200 baud AX-25 AFSK
RS-15 29 Jul 00:49:52 00:58:30 28° 257° (WSW) 01:07:25 29.354 - 29.394 USB, Beacon 29.352 USB
AO-40 29 Jul 01:02:24 04:08:48 24° 130° (SE) 05:30:08 Beacon 2401.320
Oscar 19 29 Jul 01:12:20 01:14:45 13° 89° (E) 01:17:10 437.125 CW, 437.150 USB
PCSat 29 Jul 01:18:28 01:23:52 81° 301° (WNW) 01:29:20 145.825 MHz
JAS-1B 29 Jul 01:38:37 01:42:18 13° 78° (ENE) 01:45:47 435.800 - 435.900 CW/SSB
Oscar 16 29 Jul 01:39:13 01:43:29 25° 94° (E) 01:47:43 437.025 USB, Beacon 2401.1428
ITAMSAT 1 29 Jul 02:00:29 02:03:53 17° 91° (E) 02:07:16 435.822 SSB
ISS 29 Jul 02:09:02 02:11:39 21° 348° (NNW) 02:14:16 145.800 FM
AO-27 29 Jul 02:18:58 02:23:19 27° 95° (E) 02:27:38 436.795 MHz FM
Uribyol 2 29 Jul 02:19:13 02:23:37 28° 95° (E) 02:27:59 436.500 FM
Sapphire 29 Jul 02:29:36 02:34:10 27° 313° (NW) 02:38:46 437.095 MHz 1200 baud AX-25 AFSK
Gurwin Techsat 1B 29 Jul 02:41:17 02:44:54 18° 91° (E) 02:48:29 435.225 FM
Oscar 19 29 Jul 02:49:29 02:54:39 76° 286° (WNW) 02:59:49 437.125 CW, 437.150 USB
PCSat 29 Jul 03:04:50 03:08:11 16° 321° (NW) 03:11:32 145.825 MHz
AO-Echo 29 Jul 03:06:41 03:11:48 78° 103° (ESE) 03:16:42 ?
Oscar 16 29 Jul 03:18:08 03:22:57 41° 291° (WNW) 03:27:46 437.025 USB, Beacon 2401.1428
OPAL 29 Jul 03:22:59 03:27:36 42° 67° (ENE) 03:32:16 ?
JAS-1B 29 Jul 03:25:26 03:34:52 67° 100° (E) 03:42:52 435.800 - 435.900 CW/SSB
ITAMSAT 1 29 Jul 03:38:41 03:43:47 59° 288° (WNW) 03:48:50 435.822 SSB
ISS 29 Jul 03:46:44 03:49:14 19° 9° (N) 03:51:44 145.800 FM
Oscar 10/S400 29 Jul 03:49:59 04:56:46 51° 216° (SW) 11:30:18 145.825 - 145.975 CW/USB, Beacon 145.810 USB
TMSAT-1 29 Jul 03:55:34 04:00:50 64° 101° (ESE) 04:06:04 436.925 FM
AO-27 29 Jul 03:58:07 04:02:55 39° 292° (WNW) 04:07:41 436.795 MHz FM
Uribyol 2 29 Jul 03:58:26 04:03:09 37° 292° (WNW) 04:07:51 436.500 FM
Gurwin Techsat 1B 29 Jul 04:20:02 04:25:15 59° 288° (WNW) 04:30:27 435.225 FM
Oscar 19 29 Jul 04:31:54 04:33:07 11° 304° (WNW) 04:34:20 437.125 CW, 437.150 USB
AO-7 29 Jul 04:43:51 04:51:39 42° 99° (E) 04:59:22 29.400 - 29.500 MHz
AO-Echo 29 Jul 04:47:14 04:49:52 14° 301° (WNW) 04:52:27 ?
OPAL 29 Jul 05:02:45 05:06:39 23° 264° (W) 05:10:35 ?
Uosat F 29 Jul 05:03:34 05:08:33 62° 102° (ESE) 05:13:30 435.120 FM
JAS-1B 29 Jul 05:16:30 05:24:36 34° 303° (WNW) 05:31:50 435.800 - 435.900 CW/SSB
ISS 29 Jul 05:23:15 05:26:32 49° 28° (NNE) 05:29:49 145.800 FM
MaSat-1 29 Jul 05:23:31 05:27:09 18° 46° (NE) 05:30:43 437.345 MHz
KITSAT 1 29 Jul 05:28:13 05:35:07 32° 107° (ESE) 05:42:01 435.175 FM
TMSAT-1 29 Jul 05:36:42 05:40:15 19° 299° (WNW) 05:43:47 436.925 FM
STRAND 1 29 Jul 05:46:41 05:50:52 26° 65° (ENE) 05:55:02 ?
Hamsat 29 Jul 05:50:50 05:53:22 15° 91° (E) 05:55:54 145.90 MHz
Saudisat 1A 29 Jul 06:31:00 06:32:26 11° 108° (ESE) 06:33:52 436.775 MHz
AO-7 29 Jul 06:36:39 06:44:29 47° 298° (WNW) 06:52:16 29.400 - 29.500 MHz
Uosat F 29 Jul 06:43:35 06:46:51 18° 299° (WNW) 06:50:06 435.120 FM
MaSat-1 29 Jul 06:59:50 07:05:11 82° 245° (WSW) 07:10:13 437.345 MHz
ISS 29 Jul 07:00:20 07:03:04 23° 225° (SW) 07:05:48 145.800 FM
JAS-2 29 Jul 07:00:57 07:06:51 58° 100° (E) 07:12:09 435.800 - 435.900 CW/SSB, 435.910 FM
KITSAT 1 29 Jul 07:22:02 07:30:02 62° 307° (NW) 07:38:05 435.175 FM
STRAND 1 29 Jul 07:24:58 07:29:49 42° 262° (W) 07:34:42 ?
Hamsat 29 Jul 07:25:27 07:29:36 49° 287° (WNW) 07:33:47 145.90 MHz
SO-67 29 Jul 07:47:46 07:51:08 44° 99° (E) 07:54:28 435.3500 MHz FM
Sapphire 29 Jul 07:51:19 07:52:53 11° 32° (NNE) 07:54:26 437.095 MHz 1200 baud AX-25 AFSK
Saudisat 1A 29 Jul 08:06:57 08:11:22 79° 304° (NW) 08:15:49 436.775 MHz
PCSat 29 Jul 08:23:20 08:27:03 18° 41° (NE) 08:30:45 145.825 MHz
AO-7 29 Jul 08:32:48 08:35:12 12° 320° (NW) 08:37:35 29.400 - 29.500 MHz
MaSat-1 29 Jul 08:40:37 08:41:34 11° 263° (W) 08:42:30 437.345 MHz
JAS-2 29 Jul 08:47:00 08:51:22 21° 301° (WNW) 08:55:25 435.800 - 435.900 CW/SSB, 435.910 FM
HO-68 29 Jul 09:07:19 09:13:24 29° 95° (E) 09:19:27 435.675 MHz FM
KITSAT 1 29 Jul 09:21:32 09:27:15 20° 332° (NNW) 09:32:59 435.175 FM
SO-67 29 Jul 09:22:32 09:23:48 12° 295° (WNW) 09:25:04 435.3500 MHz FM
Sapphire 29 Jul 09:32:24 09:37:41 49° 54° (NE) 09:42:55 437.095 MHz 1200 baud AX-25 AFSK
UKube-1 29 Jul 09:41:14 09:45:07 31° 97° (E) 09:48:58 145.840 MHz, 145.915 MHz
Saudisat 1A 29 Jul 09:49:24 09:51:42 14° 324° (NW) 09:54:00 436.775 MHz
PCSat 29 Jul 10:05:44 10:11:12 87° 241° (WSW) 10:16:37 145.825 MHz
Oscar 11 29 Jul 10:25:52 10:30:07 51° 100° (E) 10:34:20 145.825 FM, Beacon 2401.500 USB
FUNcube-1 29 Jul 10:48:15 10:52:00 32° 97° (E) 10:55:47 145.950 - 145.970 MHz USB
HO-68 29 Jul 10:54:29 11:01:25 55° 293° (WNW) 11:08:18 435.675 MHz FM
Sapphire 29 Jul 11:16:26 11:20:47 25° 252° (WSW) 11:25:08 437.095 MHz 1200 baud AX-25 AFSK
UKube-1 29 Jul 11:17:38 11:21:12 25° 294° (WNW) 11:24:45 145.840 MHz, 145.915 MHz
KITSAT 1 29 Jul 11:23:15 11:26:33 13° 2° (N) 11:29:51 435.175 FM
PCSat 29 Jul 11:51:55 11:53:45 12° 258° (WSW) 11:55:35 145.825 MHz
Oscar 11 29 Jul 12:03:13 12:05:54 16° 296° (WNW) 12:08:34 145.825 FM, Beacon 2401.500 USB
JAS-1B 29 Jul 12:23:03 12:28:32 17° 46° (NE) 12:34:10 435.800 - 435.900 CW/SSB
FUNcube-1 29 Jul 12:25:01 12:28:16 22° 293° (WNW) 12:31:32 145.950 - 145.970 MHz USB
Oscar 19 29 Jul 12:29:30 12:33:22 22° 63° (ENE) 12:37:14 437.125 CW, 437.150 USB
AO-Echo 29 Jul 12:43:56 12:46:59 16° 60° (ENE) 12:50:03 ?
HO-68 29 Jul 12:45:26 12:47:35 12° 313° (NW) 12:49:43 435.675 MHz FM
SO-50 29 Jul 12:53:16 12:57:44 89° 118° (ESE) 13:02:19 436.795 FM
Oscar 16 29 Jul 12:56:52 13:01:36 40° 69° (ENE) 13:06:22 437.025 USB, Beacon 2401.1428
RS-15 29 Jul 13:00:39 13:11:07 49° 111° (ESE) 13:21:22 29.354 - 29.394 USB, Beacon 29.352 USB
UOSAT-12 29 Jul 13:15:07 13:16:46 12° 107° (ESE) 13:18:25 437.025 FM, 437.400 FM
ITAMSAT 1 29 Jul 13:18:54 13:23:23 30° 66° (ENE) 13:27:52 435.822 SSB
KITSAT 1 29 Jul 13:19:24 13:25:38 23° 33° (NNE) 13:31:49 435.175 FM
AO-27 29 Jul 13:37:40 13:42:36 44° 69° (ENE) 13:47:33 436.795 MHz FM
Uribyol 2 29 Jul 13:37:41 13:42:37 46° 70° (ENE) 13:47:34 436.500 FM
TMSAT-1 29 Jul 13:40:15 13:43:11 15° 59° (ENE) 13:46:08 436.925 FM
AO-7 29 Jul 13:56:07 14:00:22 15° 44° (NE) 14:04:36 29.400 - 29.500 MHz
Gurwin Techsat 1B 29 Jul 14:02:50 14:07:28 32° 66° (ENE) 14:12:07 435.225 FM
Oscar 19 29 Jul 14:07:26 14:12:22 49° 261° (W) 14:17:20 437.125 CW, 437.150 USB
JAS-1B 29 Jul 14:08:07 14:16:55 61° 67° (ENE) 14:26:34 435.800 - 435.900 CW/SSB
AO-Echo 29 Jul 14:19:46 14:25:05 78° 257° (WSW) 14:30:26 ?
SO-50 29 Jul 14:36:13 14:38:59 16° 323° (NW) 14:41:47 436.795 FM
Oscar 16 29 Jul 14:36:52 14:41:04 26° 266° (W) 14:45:18 437.025 USB, Beacon 2401.1428
Uosat F 29 Jul 14:42:22 14:44:30 13° 58° (ENE) 14:46:38 435.120 FM
UOSAT-12 29 Jul 14:51:35 14:56:12 82° 304° (NW) 15:00:55 437.025 FM, 437.400 FM
Saudisat 1A 29 Jul 14:54:34 14:57:23 16° 38° (NE) 15:00:11 436.775 MHz
ITAMSAT 1 29 Jul 14:57:59 15:02:45 36° 263° (W) 15:07:33 435.822 SSB
RS-15 29 Jul 15:12:38 15:23:23 54° 315° (NW) 15:34:03 29.354 - 29.394 USB, Beacon 29.352 USB
KITSAT 1 29 Jul 15:14:21 15:22:28 76° 56° (ENE) 15:30:31 435.175 FM
TMSAT-1 29 Jul 15:17:08 15:22:26 79° 257° (WSW) 15:27:46 436.925 FM
AO-27 29 Jul 15:18:08 15:22:17 24° 266° (W) 15:26:28 436.795 MHz FM
Uribyol 2 29 Jul 15:18:15 15:22:18 23° 266° (W) 15:26:22 436.500 FM
Gurwin Techsat 1B 29 Jul 15:42:32 15:47:21 35° 263° (W) 15:52:12 435.225 FM
